Date String (YYYY-MM-DD hh:mm:ss) UTC,Instrument flags,Ambient pressure (hPa),Sample flow (lpm),Bypass flow (lpm),Sample temperature (°C),Ambient temperature (°C),ASC tube jacket temperature (°C),LED temperature (°C),Box temperature (°C),Sample RH (%),Span deviation,Mass concentration (μg/m³),Mass concentration (μg/m³),Mass concentration (μg/m³)
DateTimeUTC,F1_M11,P_M11,Q1_M11,Q2_M11,T1_M11,T2_M11,T3_M11,T4_M11,T5_M11,U1_M11,ZSPAN_M11,X2_M11,X0_M11,X1_M11
2023-05-06 05:00:00,,0825.6,4.99,0.00,30.2,28.6,00.0,38.6,31.7,12.0,0000.0,0003.70,0010.23,0002.22
2023-05-06 05:01:00,,0825.6,5.00,0.00,30.2,28.6,00.0,38.6,31.7,11.5,0000.0,0003.73,0010.92,0002.21
2023-05-06 05:02:00,,0825.6,5.00,0.00,30.2,28.6,00.0,38.6,31.7,10.9,0000.0,0003.71,0011.26,0002.22
2023-05-06 05:03:00,,0825.6,4.99,0.00,30.2,28.6,00.0,38.6,31.7,11.1,0000.0,0003.70,0011.40,0002.22
2023-05-06 05:04:00,,0825.5,4.99,0.00,30.1,28.5,00.0,38.6,31.6,10.8,0000.0,0003.71,0010.95,0002.24
2023-05-06 05:05:00,,0825.6,5.01,0.00,30.1,28.4,00.0,38.6,31.6,10.9,0000.0,0003.67,0011.09,0002.23
2023-05-06 05:06:00,,0825.6,5.00,0.00,30.1,28.4,00.0,38.6,31.5,10.9,0000.0,0003.68,0011.82,0002.23
2023-05-06 05:07:00,,0825.5,5.00,0.00,30.1,28.4,00.0,38.6,31.6,11.0,0000.0,0003.68,0012.24,0002.22
2023-05-06 05:08:00,,0825.6,4.99,0.00,30.1,28.3,00.0,38.6,31.5,11.2,0000.0,0003.70,0012.20,0002.22
2023-05-06 05:09:00,,0825.6,5.00,0.00,30.1,28.3,00.0,38.6,31.5,11.1,0000.0,0003.72,0011.69,0002.21
2023-05-06 05:10:00,,0825.6,5.01,0.00,30.0,28.3,00.0,38.6,31.5,11.0,0000.0,0003.71,0011.95,0002.21
2023-05-06 05:11:00,,0825.6,5.01,0.00,30.0,28.3,00.0,38.5,31.5,10.9,0000.0,0003.74,0011.81,0002.21
2023-05-06 05:12:00,,0825.7,4.99,0.00,30.0,28.3,00.0,38.5,31.4,11.1,0000.0,0003.73,0011.77,0002.20
2023-05-06 05:13:00,,0825.6,5.00,0.00,30.0,28.2,00.0,38.5,31.4,11.1,0000.0,0003.74,0011.28,0002.18
2023-05-06 05:14:00,,0825.6,5.01,0.00,29.9,28.1,00.0,38.5,31.3,11.2,0000.0,0003.74,0011.23,0002.18
2023-05-06 05:15:00,,0825.6,5.00,0.00,29.9,28.1,00.0,38.5,31.3,11.4,0000.0,0003.73,0011.23,0002.16
2023-05-06 05:16:00,,0825.6,4.99,0.00,29.8,28.0,00.0,38.5,31.2,11.3,0000.0,0003.75,0011.38,0002.16
2023-05-06 05:17:00,,0825.6,5.01,0.00,29.8,27.9,00.0,38.4,31.1,11.2,0000.0,0003.74,0010.72,0002.15
2023-05-06 05:18:00,,0825.6,5.01,0.00,29.7,27.9,00.0,38.4,31.1,11.1,0000.0,0003.71,0010.16,0002.14
2023-05-06 05:19:00,,0825.6,4.98,0.00,29.7,27.8,00.0,38.4,31.0,11.1,0000.0,0003.72,0010.93,0002.15
2023-05-06 05:20:00,,0825.6,5.01,0.00,29.6,27.8,00.0,38.3,31.0,11.1,0000.0,0003.69,0010.85,0002.15
2023-05-06 05:21:00,,0825.6,5.00,0.00,29.6,27.7,00.0,38.3,30.9,11.1,0000.0,0003.70,0010.52,0002.17
2023-05-06 05:22:00,,0825.6,4.99,0.00,29.6,27.7,00.0,38.3,30.9,10.9,0000.0,0003.71,0010.59,0002.18
2023-05-06 05:23:00,,0825.6,5.00,0.00,29.5,27.6,00.0,38.2,30.9,10.8,0000.0,0003.69,0009.98,0002.18
2023-05-06 05:24:00,,0825.6,5.01,0.00,29.5,27.6,00.0,38.2,30.8,10.5,0000.0,0003.69,0009.84,0002.18
2023-05-06 05:25:00,,0825.6,5.00,0.00,29.5,27.6,00.0,38.2,30.9,10.8,0000.0,0003.69,0009.60,0002.18
2023-05-06 05:26:00,,0825.6,4.99,0.00,29.5,27.7,00.0,38.2,31.0,10.7,0000.0,0003.71,0009.64,0002.19
2023-05-06 05:27:00,,0825.6,5.01,0.00,29.5,27.7,00.0,38.2,31.1,10.4,0000.0,0003.70,0009.58,0002.20
2023-05-06 05:28:00,,0825.7,5.01,0.00,29.6,27.8,00.0,38.2,31.1,10.2,0000.0,0003.70,0009.40,0002.21
2023-05-06 05:29:00,,0825.8,4.99,0.00,29.6,27.9,00.0,38.1,31.1,10.2,0000.0,0003.68,0009.38,0002.21
2023-05-06 05:30:00,,0825.9,4.99,0.00,29.6,28.0,00.0,38.1,31.1,10.3,0000.0,0003.68,0008.83,0002.20
2023-05-06 05:31:00,,0825.9,5.01,0.00,29.6,28.0,00.0,38.1,31.1,10.6,0000.0,0003.67,0008.67,0002.19
2023-05-06 05:32:00,,0825.9,5.00,0.00,29.6,28.1,00.0,38.1,31.2,11.0,0000.0,0003.67,0008.65,0002.17
2023-05-06 05:33:00,,0825.9,4.99,0.00,29.6,28.1,00.0,38.1,31.1,11.2,0000.0,0003.66,0008.75,0002.17
2023-05-06 05:34:00,,0825.9,5.00,0.00,29.7,28.1,00.0,38.1,31.1,11.2,0000.0,0003.67,0008.84,0002.18
2023-05-06 05:35:00,,0825.9,5.01,0.00,29.7,28.2,00.0,38.1,31.2,11.3,0000.0,0003.69,0009.16,0002.21
2023-05-06 05:36:00,,0825.9,5.00,0.00,29.7,28.2,00.0,38.1,31.2,11.4,0000.0,0003.75,0009.76,0002.22
2023-05-06 05:37:00,,0825.9,5.00,0.00,29.7,28.2,00.0,38.1,31.2,11.5,0000.0,0003.76,0009.67,0002.23
2023-05-06 05:38:00,,0825.9,4.99,0.00,29.7,28.2,00.0,38.1,31.3,11.5,0000.0,0003.76,0009.66,0002.23
2023-05-06 05:39:00,,0825.8,5.01,0.00,29.7,28.3,00.0,38.1,31.3,11.6,0000.0,0003.74,0009.65,0002.23
2023-05-06 05:40:00,,0825.9,5.00,0.00,29.8,28.3,00.0,38.1,31.3,11.6,0000.0,0003.73,0009.66,0002.23
2023-05-06 05:41:00,,0825.9,4.99,0.00,29.8,28.3,00.0,38.2,31.3,11.5,0000.0,0003.75,0009.64,0002.23
2023-05-06 05:42:00,,0825.9,4.99,0.00,29.8,28.3,00.0,38.2,31.3,11.7,0000.0,0003.76,0010.06,0002.24
2023-05-06 05:43:00,,0825.9,5.00,0.00,29.8,28.3,00.0,38.2,31.4,11.0,0000.0,0003.75,0010.36,0002.24
2023-05-06 05:44:00,,0825.9,5.01,0.00,29.8,28.3,00.0,38.2,31.3,11.0,0000.0,0003.71,0009.98,0002.23
2023-05-06 05:45:00,,0825.9,5.00,0.00,29.8,28.4,00.0,38.2,31.3,11.1,0000.0,0003.72,0009.89,0002.22
2023-05-06 05:46:00,,0825.8,4.98,0.00,29.8,28.4,00.0,38.2,31.3,11.2,0000.0,0003.70,0009.74,0002.22
2023-05-06 05:47:00,,0825.8,5.00,0.00,29.8,28.4,00.0,38.2,31.3,10.9,0000.0,0003.71,0009.43,0002.22
2023-05-06 05:48:00,,0825.9,5.02,0.00,29.9,28.4,00.0,38.2,31.3,10.9,0000.0,0003.72,0009.42,0002.22
2023-05-06 05:49:00,,0825.9,4.99,0.00,29.9,28.4,00.0,38.2,31.3,10.9,0000.0,0003.75,0009.46,0002.22
2023-05-06 05:50:00,,0825.9,4.99,0.00,29.9,28.4,00.0,38.2,31.3,10.9,0000.0,0003.81,0009.74,0002.24
2023-05-06 05:51:00,,0825.9,4.99,0.00,29.9,28.4,00.0,38.2,31.4,10.9,0000.0,0003.88,0009.96,0002.27
2023-05-06 05:52:00,,0825.9,5.00,0.00,29.9,28.4,00.0,38.2,31.4,11.0,0000.0,0003.90,0010.13,0002.29
2023-05-06 05:53:00,,0825.9,5.00,0.00,29.9,28.4,00.0,38.2,31.4,11.1,0000.0,0003.93,0009.96,0002.29
2023-05-06 05:54:00,,0825.9,5.00,0.00,29.9,28.4,00.0,38.3,31.4,11.1,0000.0,0003.98,0009.92,0002.32
2023-05-06 05:55:00,,0825.8,5.00,0.00,29.9,28.4,00.0,38.3,31.4,11.2,0000.0,0004.06,0010.07,0002.35
2023-05-06 05:56:00,,0825.9,4.99,0.00,29.9,28.4,00.0,38.3,31.4,11.2,0000.0,0004.07,0010.10,0002.38
2023-05-06 05:57:00,,0825.9,5.00,0.00,29.9,28.4,00.0,38.3,31.3,11.2,0000.0,0004.10,0009.98,0002.40
2023-05-06 05:58:00,,0825.9,5.01,0.00,29.9,28.4,00.0,38.3,31.4,11.1,0000.0,0004.05,0009.68,0002.39
2023-05-06 05:59:00,,0825.9,5.00,0.00,29.9,28.4,00.0,38.3,31.4,11.1,0000.0,0004.08,0009.93,0002.39
